Find Starlink 31920

NORAD ID: 59907 Int'l Des: 2024-100 Owner: SPXS Country: US Constellation: starlink operational
LEOCIRCULAR

Live Position

Loading 3D Globe...

About Starlink 31920

Description loading...

Upcoming Passes

Passes for default location (London). Set your location on the main map for personalized predictions.

Altitude History

Loading altitude history...

Two-Line Element Set

1 59907U 24100Y 26105.77351463 .00073548 00000-0 16650-2 0 9994
2 59907 42.9952 239.5228 0015304 344.6347 15.4044 15.42095474107230
Epoch: Apr 15, 2026 • Age: 20 hours

Current Status

Altitude 453.6 km
Velocity 7.64 km/s
Sub-Earth Point -35.12°S, 45.03°E
Launch Date May 28, 2024
Age 1.8 years
Type internet

Technical Details

Classification Payload
Mass 730.00 kg
Dry Mass 700.00 kg
Total Mass 730.00 kg
Length 0.30 m
Diameter 4.10 m
Span 29.00 m
Shape Box + pan
Manufacturer SPXS
Bus Type Starlink V2M
Phase Status In Orbit
Owner/State SPXS/US

Most Searched